Location: Fort Worth, Tx
(32.7431°N, 97.3695°W)
Time: 10:34:31
(UTC-05:00)

Vanguard 2 - Visible Passes

Search period start: 27 January 2023 00:00
Search period end: 06 February 2023 00:00
Orbit: 554 x 2930 km, 32.9° (Epoch: 26 January)

Date Brightness Start Highest point End Pass type
(mag) Time Alt. Az. Time Alt. Az. Time Alt. Az.
27 Jan 11.5 02:37:45 17° E 02:37:45 17° E 02:39:46 10° E visible
27 Jan 9.9 04:39:04 75° E 04:39:04 75° E 04:50:02 10° E visible
27 Jan 9.7 06:40:23 30° W 06:48:43 62° SSW 06:58:26 10° SE visible
27 Jan 10.9 22:05:49 10° S 22:11:52 25° SSE 22:11:52 25° SSE visible
28 Jan 11.6 00:12:25 10° SW 00:13:13 13° SW 00:13:13 13° SW visible
28 Jan 11.3 02:53:30 22° E 02:53:30 22° E 02:56:54 10° E visible
28 Jan 9.8 04:54:49 84° SSE 04:54:49 84° SSE 05:07:02 10° ESE visible
28 Jan 9.9 06:56:07 24° W 07:05:26 52° SSW 07:14:54 10° SE visible
28 Jan 10.8 22:21:24 10° SSW 22:27:54 30° S 22:27:54 30° S visible
29 Jan 11.7 00:29:06 10° WSW 00:29:14 10° WSW 00:29:14 10° WSW visible
29 Jan 11.1 03:09:15 28° E 03:09:15 28° E 03:14:02 10° E visible
29 Jan 9.8 05:10:34 77° SW 05:11:33 79° SSW 05:23:56 10° ESE visible
29 Jan 10.1 07:11:54 19° W 07:21:59 41° SW 07:31:08 10° SSE visible
29 Jan 11.0 20:35:01 10° SSE 20:41:04 15° SE 20:42:37 14° ESE visible
29 Jan 10.7 22:37:22 10° SSW 22:43:57 34° S 22:43:57 34° S visible
30 Jan 10.9 03:25:03 34° E 03:25:03 34° E 03:31:09 10° E visible
30 Jan 9.8 05:26:22 65° WSW 05:28:34 71° SSW 05:40:43 10° ESE visible
30 Jan 10.3 07:27:42 14° W 07:38:23 32° SW 07:47:03 10° SSE visible
30 Jan 10.8 20:48:59 10° S 20:57:19 21° SE 20:58:41 21° SE visible
30 Jan 10.6 22:53:38 10° SW 23:00:02 36° SSW 23:00:02 36° SSW visible
31 Jan11.901:39:33E01:39:33E01:01:22WSWvisible
31 Jan 10.7 03:40:53 41° E 03:40:53 41° E 03:48:14 10° E visible
31 Jan 9.9 05:42:13 54° WSW 05:45:26 62° SSW 05:57:20 10° SE visible
31 Jan 10.6 07:44:05 10° W 07:54:39 24° SW 08:02:30 10° S visible
31 Jan 10.5 21:04:03 10° S 21:13:36 29° SE 21:14:46 29° SE visible
31 Jan 10.7 23:10:07 10° SW 23:16:07 35° SW 23:16:07 35° SW visible
01 Feb12.001:55:26E01:55:26E01:17:27Wvisible
01 Feb 10.5 03:56:45 48° ESE 03:56:45 48° ESE 04:05:15 10° ESE visible
01 Feb 10.1 05:58:05 45° WSW 06:02:09 52° SSW 06:13:45 10° SE visible
01 Feb 10.2 21:19:42 10° SSW 21:29:57 38° SE 21:30:52 37° SE visible
01 Feb 10.8 23:26:48 10° WSW 23:32:12 33° SW 23:32:12 33° SW visible
02 Feb 10.4 04:12:40 53° SE 04:12:40 53° SE 04:22:09 10° ESE visible
02 Feb 10.3 06:14:00 36° WSW 06:18:42 43° SW 06:29:54 10° SSE visible
02 Feb 10.9 19:34:07 10° SSE 19:38:12 13° SE 19:42:55 10° ESE visible
02 Feb 10.0 21:35:42 10° SSW 21:46:24 47° SE 21:46:56 47° SE visible
02 Feb 10.9 23:43:37 10° WSW 23:48:16 29° WSW 23:48:16 29° WSW visible
03 Feb 11.7 02:27:17 13° E 02:27:17 13° E 02:28:26 10° E visible
03 Feb 10.3 04:28:37 56° SSE 04:28:37 56° SSE 04:38:54 10° SE visible
03 Feb 10.5 06:29:58 28° WSW 06:35:07 34° SW 06:45:44 10° SSE visible
03 Feb 10.6 19:47:48 10° S 19:54:21 19° SE 20:01:38 12° E visible
03 Feb 9.8 21:52:00 10° SW 22:02:58 57° SSE 22:02:58 57° SSE visible
04 Feb 11.1 00:00:33 10° WSW 00:04:19 25° WSW 00:04:19 25° WSW visible
04 Feb 11.5 02:43:16 17° ESE 02:43:16 17° ESE 02:45:33 10° ESE visible
04 Feb 10.3 04:44:36 55° S 04:44:36 55° S 04:55:28 10° SE visible
04 Feb 10.8 06:45:57 21° WSW 06:51:26 26° SW 07:01:06 10° S visible
04 Feb 10.3 20:02:53 10° S 20:10:33 27° SE 20:17:39 17° E visible
04 Feb 9.7 22:08:29 10° SW 22:18:59 66° S 22:18:59 66° S visible
05 Feb 11.2 00:17:33 10° W 00:20:20 21° W 00:20:20 21° W visible
05 Feb 11.4 02:59:17 21° ESE 02:59:17 21° ESE 03:02:34 10° ESE visible
05 Feb 10.3 05:00:38 49° S 05:00:38 49° S 05:11:49 10° SE visible
05 Feb 11.0 07:01:58 15° WSW 07:07:42 19° SW 07:15:44 10° S visible
05 Feb 10.0 20:18:33 10° SSW 20:26:50 36° SE 20:33:39 23° E visible
05 Feb 9.7 22:25:09 10° WSW 22:34:59 70° SSW 22:34:59 70° SSW visible
